Location: Lake Zurich
(42.1970°N, 88.0930°W)
Time: 06:27:38
(UTC-06:00)

Daily predictions for brighter satellites

Satellite Brightness Start Highest point End
(mag) Time Altitude Azimuth Time Altitude Azimuth Time Altitude Azimuth
BREEZE M DEB (TANK) 3.4 16:43:38 10° NW 16:46:08 28° NNE 16:51:19 10° ENE
COSMOS 2406 3.9 16:42:19 10° NNW 16:47:59 63° WSW 16:53:38 10° S
Genesis I 4.1 16:46:02 10° NNW 16:49:29 28° NE 16:52:53 10° ESE
Cosmos 1536 Rocket 4.3 16:50:34 10° SSE 16:54:35 34° E 16:58:38 10° NNE
Cosmos 1833 Rocket 3.8 16:51:48 10° N 16:56:05 22° NE 17:00:21 10° E
Meteor 1-5 Rocket 4.3 16:52:34 10° NNW 16:58:02 82° W 17:03:39 10° S
NOSS 3-3 (A) 4.3 16:52:21 10° SSW 16:58:19 53° ESE 17:04:42 10° NE
NOSS 3-3 (C) 4.3 16:52:28 10° SSW 16:58:25 53° ESE 17:04:48 10° NE
OPS 8737 4.2 16:55:11 10° SSW 16:58:32 76° ESE 17:01:42 10° NE
Cosmos 2082 Rocket 3.1 16:54:16 10° N 16:58:57 26° NE 17:03:39 10° ESE
Cosmos 1238 Rocket 2.3 17:00:17 10° S 17:03:08 48° E 17:06:09 10° NNE
YAOGAN 1 2.7 16:59:34 10° SSE 17:03:44 50° ENE 17:07:57 10° N
SPOT 3 Rocket 3.6 16:59:22 10° SSE 17:04:27 62° ENE 17:09:34 10° N
MSX 4.2 16:59:26 10° SE 17:04:49 43° ENE 17:10:13 10° N
Cosmos 1975 3.4 17:01:11 10° N 17:04:58 36° ENE 17:08:41 10° SE
Cosmos 1743 4.4 17:02:58 10° NE 17:05:10 14° ENE 17:07:21 10° ESE
CZ-4 R/B 1.4 17:01:04 10° SSE 17:05:14 74° ENE 17:09:22 10° N
ATLAS 2AS CENTAUR R/B 3.1 16:58:20 10° NW 17:06:29 86° SW 17:14:02 10° SSE
Cosmos 494 Rocket 4.0 17:01:44 10° NNW 17:07:00 74° ENE 17:12:15 10° SSE
COSMOS 2487 3.4 17:06:00 10° N 17:09:08 27° ENE 17:12:14 10° SE
Cosmos 1500 3.9 17:06:39 10° NNE 17:10:06 31° ENE 17:13:33 10° SE
Meteor 1-12 Rocket 4.3 17:05:40 10° N 17:11:25 63° ENE 17:17:15 10° SSE
CRYOSAT 2 4.3 17:06:44 10° N 17:11:40 83° E 17:16:34 10° S
Meteor 2-19 Rocket 4.4 17:05:36 10° N 17:11:41 88° E 17:17:44 10° S
Cosmos 1484 Rocket 3.7 17:09:12 10° SE 17:12:15 24° ENE 17:15:17 10° NNE
CZ-2C R/B 2.4 17:07:58 10° SSE 17:12:57 72° ENE 17:18:05 10° N
USA 32 4.0 17:08:03 10° S 17:13:16 89° E 17:18:32 10° N
MOS 1 4.3 17:08:15 10° SSE 17:13:53 79° ENE 17:19:33 10° NNW
EP 2 4.4 17:14:42 10° SW 17:17:16 73° WNW 17:19:41 13° NNE
Tiangong 1 2.1 17:15:01 10° SW 17:17:50 34° SSE 17:19:54 15° E
SJ-12 3.9 17:14:04 10° SSE 17:18:09 88° ENE 17:22:18 10° NNW
Cosmos 1455 Rocket 3.1 17:17:47 10° N 17:22:13 90° E 17:26:40 10° S
SKYMED 2 4.3 17:22:09 10° NNE 17:26:04 32° E 17:29:57 10° SSE
IDEFIX/ARIANE 42P 2.6 17:24:09 10° SSE 17:29:21 83° WSW 17:34:34 10° NNW
BREEZE-M R/B 4.4 17:18:36 10° SW 17:30:35 88° SSE 17:34:45 18° ENE
ASTRO F (AKARI) 4.3 17:28:15 12° NNE 17:31:07 55° ESE 17:34:13 10° S
AQUARIUS 4.4 17:28:14 10° S 17:32:43 73° WSW 17:37:14 10° NNW
Okean 1-7 Rocket 4.2 17:32:33 10° SSE 17:36:39 35° E 17:39:56 15° NNE
Cosmos 1809 Rocket 4.4 17:32:38 10° N 17:38:46 66° E 17:44:50 10° SSE
Thor Agena Rocket 3.8 17:33:55 10° N 17:39:07 71° WNW 17:44:21 10° SSW
Cosmos 1844 Rocket 4.1 17:34:40 10° WSW 17:39:47 36° WNW 17:44:57 10° N
Cosmos 1812 3.5 17:37:59 10° SSW 17:41:45 52° W 17:45:32 10° N
Cosmos 2366 rocket 4.4 17:35:28 10° NNW 17:41:47 68° W 17:48:00 10° S
OE (NEXTSAT) 4.3 17:43:26 10° WSW 17:47:01 87° NNW 17:48:25 35° ENE
NOSS 2-1 (D) 3.7 17:48:47 10° S 17:52:24 43° ESE 17:53:30 34° ENE
NOSS 2-1 (C) 3.7 17:49:28 10° S 17:53:06 42° ESE 17:54:09 34° E
TIMED 4.4 17:49:53 10° S 17:54:13 69° ESE 17:56:50 23° NNE
Okean 1 4.1 17:50:30 10° SSW 17:54:28 54° W 17:58:28 10° N
Abrixas 2.4 17:51:47 10° WNW 17:54:44 57° NNE 17:54:51 57° NE
Timation 1 Rocket 4.3 17:54:38 10° S 18:00:30 64° ESE 18:04:20 23° NE
Cosmos 2239 Rocket 4.4 17:59:03 10° N 18:05:12 61° E 18:11:16 10° SSE
Cosmos 1346 Rocket 3.2 18:01:26 10° SSW 18:05:16 59° W 18:08:50 12° N
Cosmos 2297 3.6 18:00:44 10° SSW 18:06:22 87° ESE 18:10:21 20° NNE
ISS -1.2 18:05:29 10° NW 18:07:47 17° N 18:07:47 17° N
BREEZE M DEB (TANK) 2.5 17:59:45 10° SW 18:07:54 74° SSE 18:08:45 50° E
Timation 2 Rocket 4.2 18:02:41 10° NNW 18:09:32 87° WSW 18:16:27 10° SSE
NOSS 2-1 (E) 3.3 18:07:52 10° SSW 18:11:40 62° ESE 18:12:12 55° E
COSMO-SKYMED 1 2.7 18:10:34 15° N 18:14:12 75° WNW 18:18:31 10° SSW
Cosmos 1821 Rocket 3.8 18:09:55 10° N 18:16:02 71° E 18:22:05 10° SSE
NOAA 12 4.0 18:11:00 10° SSE 18:16:12 64° ENE 18:21:25 10° N
Cosmos 2278 Rocket 3.4 18:13:12 10° SW 18:18:27 38° WNW 18:23:40 10° N
Intercosmos 25 3.4 18:17:39 10° NNW 18:20:48 59° W 18:24:05 10° S
USA 234 4.0 18:22:16 23° NNE 18:25:59 46° NNW 18:32:07 10° W
CZ-3B DEB 3.4 18:21:47 10° W 18:26:20 47° NNW 18:31:38 25° NE
Cosmos 1605 Rocket 4.1 18:20:25 10° N 18:26:31 48° ENE 18:32:29 10° SSE
SL-8 R/B 4.2 18:25:16 10° W 18:29:53 47° NNW 18:30:27 45° N
METEOR-M 4.0 18:26:36 10° SSE 18:31:55 76° ENE 18:37:16 10° N
Cosmos 2056 Rocket 3.5 18:27:12 10° S 18:32:29 62° ESE 18:32:41 61° E
Cosmos 1025 Rocket 3.0 18:31:37 10° S 18:35:59 82° W 18:36:25 71° NNW
Cosmos 921 Rocket 3.9 18:34:46 10° SW 18:38:52 46° WNW 18:40:21 33° NNW
Cosmos 1833 Rocket 3.0 18:34:55 10° NNW 18:40:30 64° WSW 18:46:02 10° S
Cosmos 1743 4.1 18:37:35 10° NNW 18:41:13 38° W 18:44:47 10° SSW
NOSS 3-4 (A) 3.7 18:35:22 10° NNW 18:42:24 75° NE 18:45:08 42° SE
NOSS 3-4 (C) 3.7 18:35:28 10° NNW 18:42:30 74° NE 18:45:09 43° SE
Cosmos 2082 Rocket 3.0 18:37:51 10° NW 18:43:20 51° WSW 18:48:48 10° S
Cosmos 1624 Rocket 3.8 18:40:42 10° SSW 18:45:53 87° ESE 18:46:00 85° NE
GEOS 3 Rocket 3.7 18:47:42 48° SSE 18:49:08 74° SW 18:54:16 10° NW
Meteor 1-28 Rocket 4.4 18:50:54 42° W 18:50:54 42° W 18:54:08 10° SW
Cosmos 1371 Rocket 4.2 18:45:39 10° SSW 18:50:59 70° WNW 18:52:09 53° N
Tiangong 1 4.1 18:50:51 10° W 18:51:36 16° W 18:51:36 16° W
Meteor 1-15 Rocket 4.2 18:48:06 10° N 18:54:02 89° W 18:59:51 10° S
